< < Back
Terminal Aerodrome Forecast


Current Version              Previous Versions:   1  2  3  4  5  6  7  8  9  

Terminal Aerodrome Forecast

429
FTUS44 KOHX 220500
TAFCSV
TAF
KCSV 220520Z 2206/2306 00000KT P6SM SCT030 BKN250
      TEMPO 2208/2212 4SM BR SCT015 SCT030 BKN250
     FM221200 VRB03KT P6SM SCT020 BKN040
      TEMPO 2212/2215 BKN020 BKN040
     FM221900 VRB03KT P6SM VCTS SCT030CB BKN250
      TEMPO 2219/2223 BKN030CB BKN250=

Latest METAR

779
SAUS70 KWBC 220700 RRJ
MTRCSV
METAR KCSV 220653Z AUTO 00000KT 10SM CLR 20/18 A3014 RMK AO2 SLP187
T02000183 TSNO


USA.gov is the U.S. government's official web portal to all federal, state and local government web resources and services.